Year,Month,Day,Hour,Minute,Value (Times are PST for temperature in C)
2020,02,26,10,24,4.80
2020,02,26,10,25,4.80
2020,02,26,10,26,4.80
2020,02,26,10,27,4.80
2020,02,26,10,28,4.80
2020,02,26,10,29,4.90
2020,02,26,10,30,4.90
2020,02,26,10,31,4.90
2020,02,26,10,32,5.00
2020,02,26,10,33,5.00
2020,02,26,10,34,5.00
2020,02,26,10,35,5.00
2020,02,26,10,36,5.00
2020,02,26,10,37,5.00
2020,02,26,10,38,4.90
2020,02,26,10,39,4.90
2020,02,26,10,40,4.90
2020,02,26,10,41,4.90
2020,02,26,10,42,4.90
2020,02,26,10,43,4.90
2020,02,26,10,44,4.90
2020,02,26,10,45,4.90
2020,02,26,10,46,4.90
2020,02,26,10,47,4.90
2020,02,26,10,48,4.90
2020,02,26,10,49,4.90
2020,02,26,10,50,4.90
2020,02,26,10,51,4.90
2020,02,26,10,52,4.90
2020,02,26,10,53,4.90
2020,02,26,10,54,4.90
2020,02,26,10,55,4.90
2020,02,26,10,56,4.90
2020,02,26,10,57,4.90
2020,02,26,10,58,4.90
2020,02,26,10,59,4.90
2020,02,26,11,00,4.90
2020,02,26,11,01,4.90
2020,02,26,11,02,5.00
2020,02,26,11,03,5.00
2020,02,26,11,04,5.00
2020,02,26,11,05,5.00
2020,02,26,11,06,5.00
2020,02,26,11,07,5.10
2020,02,26,11,08,5.10
2020,02,26,11,09,5.10
2020,02,26,11,10,5.10
2020,02,26,11,11,5.10
2020,02,26,11,12,5.10
2020,02,26,11,13,5.10
2020,02,26,11,14,5.10
2020,02,26,11,15,5.10
2020,02,26,11,16,5.10
2020,02,26,11,17,5.10
2020,02,26,11,18,5.10
2020,02,26,11,19,5.10
2020,02,26,11,20,5.10
2020,02,26,11,21,5.10
2020,02,26,11,22,5.10
2020,02,26,11,23,5.10
2020,02,26,11,24,5.10
2020,02,26,11,25,5.10
2020,02,26,11,26,5.10
2020,02,26,11,27,5.10
2020,02,26,11,28,5.10
2020,02,26,11,29,5.10
2020,02,26,11,30,5.10
2020,02,26,11,31,5.10
2020,02,26,11,32,5.20
2020,02,26,11,33,5.20
2020,02,26,11,34,5.20
2020,02,26,11,35,5.20
2020,02,26,11,36,5.20
2020,02,26,11,37,5.20
2020,02,26,11,38,5.20
2020,02,26,11,39,5.20
2020,02,26,11,40,5.20
2020,02,26,11,41,5.20
2020,02,26,11,42,5.20
2020,02,26,11,43,5.20
2020,02,26,11,44,5.30
2020,02,26,11,45,5.30
2020,02,26,11,46,5.30
2020,02,26,11,47,5.30
2020,02,26,11,48,5.30
2020,02,26,11,49,5.30
2020,02,26,11,50,5.30
2020,02,26,11,51,5.30
2020,02,26,11,52,5.30
2020,02,26,11,53,5.30
2020,02,26,11,54,5.30
2020,02,26,11,55,5.30
2020,02,26,11,56,5.30
2020,02,26,11,57,5.30
2020,02,26,11,58,5.30
2020,02,26,11,59,5.30
2020,02,26,12,00,5.30
2020,02,26,12,01,5.30
2020,02,26,12,02,5.30
2020,02,26,12,03,5.30
2020,02,26,12,04,5.30
2020,02,26,12,05,5.30
2020,02,26,12,06,5.30
2020,02,26,12,07,5.30
2020,02,26,12,08,5.30
2020,02,26,12,09,5.30
2020,02,26,12,10,5.40
2020,02,26,12,11,5.40
2020,02,26,12,12,5.40
2020,02,26,12,13,5.40
2020,02,26,12,14,5.40
2020,02,26,12,15,5.40
2020,02,26,12,16,5.40
2020,02,26,12,17,5.40
2020,02,26,12,18,5.40
2020,02,26,12,19,5.40
2020,02,26,12,20,5.40
2020,02,26,12,21,5.40
2020,02,26,12,22,5.40
2020,02,26,12,23,5.40
2020,02,26,12,24,5.40
2020,02,26,12,25,5.40
2020,02,26,12,26,5.40
2020,02,26,12,27,5.40
2020,02,26,12,28,5.40
2020,02,26,12,29,5.40
2020,02,26,12,30,5.40
2020,02,26,12,31,5.40
2020,02,26,12,32,5.40
2020,02,26,12,33,5.40
2020,02,26,12,34,5.40
2020,02,26,12,35,5.50
2020,02,26,12,36,5.40
2020,02,26,12,37,5.40
2020,02,26,12,38,5.50
2020,02,26,12,39,5.40
2020,02,26,12,40,5.40
2020,02,26,12,41,5.40
2020,02,26,12,42,5.40
2020,02,26,12,43,5.40
2020,02,26,12,44,5.50
2020,02,26,12,45,5.50
2020,02,26,12,46,5.50
2020,02,26,12,47,5.50
2020,02,26,12,48,5.50
2020,02,26,12,49,5.50
2020,02,26,12,50,5.50
2020,02,26,12,51,5.50
2020,02,26,12,52,5.50
2020,02,26,12,53,5.50
2020,02,26,12,54,5.50
2020,02,26,12,55,5.50
2020,02,26,12,56,5.50
2020,02,26,12,57,5.50
2020,02,26,12,58,5.50
2020,02,26,12,59,5.50
2020,02,26,13,00,5.50
2020,02,26,13,01,5.50
2020,02,26,13,02,5.50
2020,02,26,13,03,5.50
2020,02,26,13,04,5.50
2020,02,26,13,05,5.50
2020,02,26,13,06,5.60
2020,02,26,13,07,5.60
2020,02,26,13,08,5.60
2020,02,26,13,09,5.60
2020,02,26,13,10,5.60
2020,02,26,13,11,5.60
2020,02,26,13,12,5.70
2020,02,26,13,13,5.70
2020,02,26,13,14,5.70
2020,02,26,13,15,5.70
2020,02,26,13,16,5.70
2020,02,26,13,17,5.70
2020,02,26,13,18,5.70
2020,02,26,13,19,5.70
2020,02,26,13,20,5.70
2020,02,26,13,21,5.70
2020,02,26,13,22,5.70
2020,02,26,13,23,5.70
2020,02,26,13,24,5.70
2020,02,26,13,25,5.70
2020,02,26,13,26,5.70
2020,02,26,13,27,5.70
2020,02,26,13,28,5.70
2020,02,26,13,29,5.70
2020,02,26,13,30,5.70
2020,02,26,13,31,5.70
2020,02,26,13,32,5.80
2020,02,26,13,33,5.80
2020,02,26,13,34,5.80
2020,02,26,13,35,5.80
2020,02,26,13,36,5.80
2020,02,26,13,37,5.90
2020,02,26,13,38,5.90
2020,02,26,13,39,5.90
2020,02,26,13,40,6.00
2020,02,26,13,41,6.00
2020,02,26,13,42,5.90
2020,02,26,13,43,6.00
2020,02,26,13,44,6.00
2020,02,26,13,45,6.00
2020,02,26,13,46,6.10
2020,02,26,13,47,6.00
2020,02,26,13,48,6.00
2020,02,26,13,49,6.00
2020,02,26,13,50,6.00
2020,02,26,13,51,6.00
2020,02,26,13,52,6.00
2020,02,26,13,53,6.10
2020,02,26,13,54,6.10
2020,02,26,13,55,6.10
2020,02,26,13,56,6.10
2020,02,26,13,57,6.10
2020,02,26,13,58,6.10
2020,02,26,13,59,6.10
2020,02,26,14,00,6.10
2020,02,26,14,01,6.00
2020,02,26,14,02,6.00
2020,02,26,14,03,6.00
2020,02,26,14,04,6.10
2020,02,26,14,05,6.10
2020,02,26,14,06,6.10
2020,02,26,14,07,6.10
2020,02,26,14,08,6.10
2020,02,26,14,09,6.10
2020,02,26,14,10,6.10
2020,02,26,14,11,6.10
2020,02,26,14,12,6.20
2020,02,26,14,13,6.20
2020,02,26,14,14,6.20
2020,02,26,14,15,6.20
2020,02,26,14,16,6.20
2020,02,26,14,17,6.20
2020,02,26,14,18,6.20
2020,02,26,14,19,6.20
2020,02,26,14,20,6.20
2020,02,26,14,21,6.20
2020,02,26,14,22,6.20
2020,02,26,14,23,6.20
2020,02,26,14,24,6.20
2020,02,26,14,25,6.20
2020,02,26,14,26,6.20
2020,02,26,14,27,6.20
2020,02,26,14,28,6.20
2020,02,26,14,29,6.20
2020,02,26,14,30,6.20
2020,02,26,14,31,6.20
2020,02,26,14,32,6.20
2020,02,26,14,33,6.20
2020,02,26,14,34,6.20
2020,02,26,14,35,6.20
2020,02,26,14,36,6.20
2020,02,26,14,37,6.20
2020,02,26,14,38,6.20
2020,02,26,14,39,6.20
2020,02,26,14,40,6.20
2020,02,26,14,41,6.20
2020,02,26,14,42,6.20
2020,02,26,14,43,6.20
2020,02,26,14,44,6.30
2020,02,26,14,45,6.30
2020,02,26,14,46,6.30
2020,02,26,14,47,6.30
2020,02,26,14,48,6.30
2020,02,26,14,49,6.30
2020,02,26,14,50,6.30
2020,02,26,14,51,6.30
2020,02,26,14,52,6.30
2020,02,26,14,53,6.30
2020,02,26,14,54,6.30
2020,02,26,14,55,6.30
2020,02,26,14,56,6.30
2020,02,26,14,57,6.30
2020,02,26,14,58,6.30
2020,02,26,14,59,6.30
2020,02,26,15,00,6.30
2020,02,26,15,01,6.30
2020,02,26,15,02,6.30
2020,02,26,15,03,6.30
2020,02,26,15,04,6.30
2020,02,26,15,05,6.40
2020,02,26,15,06,6.40
2020,02,26,15,07,6.40
2020,02,26,15,08,6.40
2020,02,26,15,09,6.40
2020,02,26,15,10,6.40
2020,02,26,15,11,6.40
2020,02,26,15,12,6.40
2020,02,26,15,13,6.40
2020,02,26,15,14,6.40
2020,02,26,15,15,6.40
2020,02,26,15,16,6.40
2020,02,26,15,17,6.40
2020,02,26,15,18,6.40
2020,02,26,15,19,6.40
2020,02,26,15,20,6.40
2020,02,26,15,21,6.40
2020,02,26,15,22,6.30
2020,02,26,15,23,6.30
2020,02,26,15,24,6.30
2020,02,26,15,25,6.30
2020,02,26,15,26,6.30
2020,02,26,15,27,6.30
2020,02,26,15,28,6.30
2020,02,26,15,29,6.30
2020,02,26,15,30,6.30
2020,02,26,15,31,6.30
2020,02,26,15,32,6.30
2020,02,26,15,33,6.30
2020,02,26,15,34,6.30
2020,02,26,15,35,6.30
2020,02,26,15,36,6.30
2020,02,26,15,37,6.30
2020,02,26,15,38,6.30
2020,02,26,15,39,6.30
2020,02,26,15,40,6.30
2020,02,26,15,41,6.30
2020,02,26,15,42,6.30
2020,02,26,15,43,6.30
2020,02,26,15,44,6.30
2020,02,26,15,45,6.30
2020,02,26,15,46,6.30
2020,02,26,15,47,6.30
2020,02,26,15,48,6.30
2020,02,26,15,49,6.20
2020,02,26,15,50,6.20
2020,02,26,15,51,6.20
2020,02,26,15,52,6.20
2020,02,26,15,53,6.20
2020,02,26,15,54,6.20
2020,02,26,15,55,6.20
2020,02,26,15,56,6.20
2020,02,26,15,57,6.20
2020,02,26,15,58,6.20
2020,02,26,15,59,6.20
2020,02,26,16,00,6.20
2020,02,26,16,01,6.20
2020,02,26,16,02,6.20
2020,02,26,16,03,6.20
2020,02,26,16,04,6.20
2020,02,26,16,05,6.20
2020,02,26,16,06,6.20
2020,02,26,16,07,6.20
2020,02,26,16,08,6.20
2020,02,26,16,09,6.20
2020,02,26,16,10,6.10
2020,02,26,16,11,6.10
2020,02,26,16,12,6.10
2020,02,26,16,13,6.10
2020,02,26,16,14,6.10
2020,02,26,16,15,6.10
2020,02,26,16,16,6.10
2020,02,26,16,17,6.10
2020,02,26,16,18,6.10
2020,02,26,16,19,6.10
